Location: Condor
(52.3263°N, 114.5541°W)
Time: 22:04:29
(UTC+00:00)

Oscar 19 - Pass Details

Date: 16 December 2023
Orbit: 771 x 789 km, 98.9° (Epoch: 04 March)

Event Time Altitude Azimuth Distance (km) Brightness Sun altitude
Rises 00:36:48 0° 206° (SSW) 3,237 14.7 -10.1°
Reaches altitude 10° 00:39:42 10° 223° (SW) 2,318 14.3 -10.5°
Maximum altitude 00:43:24 20° 270° (W) 1,738 13.4 -11.0°
Drops below altitude 10° 00:47:08 10° 317° (NW) 2,337 13.4 -11.6°
Sets 00:50:05 0° 334° (NNW) 3,274 13.9 -12.0°
